Regional Weather Roundup
Issued by NWS

Home | Current Version | Previous Version | Text Only | Print | Product List | Glossary Off
Versions: 1 2 3 4 5 6 7 8 9 10 11 12 13 14 15 16 17 18 19 20 21 22 23 24 25 26 27 28 29 30 31 32 33 34 35 36 37 38 39 40 41 42 43 44 45 46 47 48 49 50

000
ASUS45 KBOU 270707
RWRCO

WEATHER ROUNDUP FOR COLORADO
NATIONAL WEATHER SERVICE DENVER/BOULDER CO
100 AM MDT FRI MAR 27 2015

NOTE: "FAIR" INDICATES FEW OR NO CLOUDS BELOW 12000 FEET WITH NO
SIGNIFICANT WEATHER AND/OR OBSTRUCTIONS TO VISIBILITY.

COZ001>005-013-030-031-270800-
...NORTHWEST COLORADO...

CITY           SKY/WX    TMP DP  RH WIND       PRES   REMARKS
CRAIG          PTCLDY    40  29  64 SW3       30.32F
HAYDEN         PTCLDY    39  25  56 W7        30.32F
MEEKER         MOCLDY    35  26  69 CALM      30.34S
MOUNT WERNER   NOT AVBL
STEAMBOAT SPGS PTCLDY    37  28  69 E6        30.33S
WALDEN         CLOUDY    36  27  69 N3        30.31R
$$

COZ006>008-011-270800-
...WEST CENTRAL VALLEYS...

CITY           SKY/WX    TMP DP  RH WIND       PRES   REMARKS
GRAND JUNCTION PTCLDY    42  20  41 E7        30.28F
MONTROSE       CLEAR     40  24  53 SE9       30.34F
EAGLE          PTCLDY    41  28  60 E8        30.35R
RIFLE          PTCLDY    39  25  57 SE5       30.32R
DELTA          CLEAR     44  23  42 E7        30.32S
NUCLA          CLEAR     39  21  48 E9        30.36F
$$

COZ017>023-064>068-270800-
...SOUTHWEST COLORADO...

CITY           SKY/WX    TMP DP  RH WIND       PRES   REMARKS
DURANGO        CLEAR     35  20  54 CALM      30.30S
CORTEZ         CLEAR     33  17  51 E7        30.33S WCI  27
PAGOSA SPRINGS CLEAR     33  19  56 CALM      30.35S
TELLURIDE      NOT AVBL
WOLF CREEK PAS PTCLDY    28  14  54 N13G20    30.49S WCI  18
$$

COZ009-010-012-014-032>034-037-058>063-270800-
...CENTRAL COLORADO...

CITY           SKY/WX    TMP DP  RH WIND       PRES   REMARKS
ASPEN          CLOUDY    36  26  67 S5        30.35F
BUENA VISTA    PTCLDY    41  21  45 N5        30.30F
COPPER MTN     CLOUDY    30  19  64 W20G28    30.43S WCI  18
BERTHOUD PASS  NOT AVBL
COTTONWOOD PAS PTCLDY    41  19  42 W17G29    30.34F
GUNNISON       PTCLDY    32  19  59 N6        30.39S WCI  26
KREMMLING      PTCLDY    32  27  80 SE5       30.33S WCI  27
LEADVILLE      CLOUDY    34  18  52 NW12G23   30.37S WCI  25
SALIDA         PTCLDY    45  20  36 NW9G20    30.36F
SUNLIGHT       NOT AVBL
WILKERSON PASS NOT AVBL
$$

COZ069>075-270800-
...SAN LUIS VALLEY/SANGRE DE CRISTO MOUNTAINS...

CITY           SKY/WX    TMP DP  RH WIND       PRES   REMARKS
ALAMOSA        PTCLDY    35  17  47 SE7       30.30R WCI  29
LA VETA PASS   PTCLDY    32  18  55 S5        30.33F WCI  27
SAGUACHE       NOT AVBL
$$

COZ035-036-038>040-270800-
...NORTHERN COLORADO FRONT RANGE...

CITY           SKY/WX    TMP DP  RH WIND       PRES   REMARKS
DENVER INTL AP MOCLDY    43  30  60 SE9       30.17F
DMNS CITY PARK   N/A     44  28  54 SW1       30.18S
AURORA         MOCLDY    43  29  56 SE9       30.18F
FRONT RANGE AP NOT AVBL
ERIE MUNI ARPT MOCLDY    42  30  60 CALM      30.18F
BOULDER MUN AP MOCLDY    46  28  49 SW3       30.18F
CENTENNIAL     MOCLDY    46  30  53 W3        30.18S
BROOMFIELD     MOCLDY    43  28  56 N5        30.19F
FORT COLLINS   MOCLDY    45  28  53 S6        30.20S
LONGMONT       MOCLDY    47  29  50 SW3       30.20F
$$

COZ041-046-047-076>085-087-088-270800-
...PIKES PEAK/PALMER DIVIDE AND SOUTHERN FOOTHILLS...

CITY           SKY/WX    TMP DP  RH WIND       PRES   REMARKS
COLO. SPRINGS  MOCLDY    40  25  55 NE5       30.21F
A. F. ACADEMY  MOCLDY    39  28  65 VRB3      30.21S
ELLICOTT       CLOUDY   N/A N/A N/A SE8       30.21R
FALCON         CLOUDY    42  24  49 CALM      30.23S
FORT CARSON    PTCLDY    38  26  62 NW5       30.19F
LIMON          CLOUDY    39  32  76 CALM      30.20F
MONUMENT HILL  CLOUDY    41  27  56 SW7       30.22R
TRINIDAD       PTCLDY    40  27  59 W12       30.21S
$$

COZ042>045-048>051-090-091-270800-
...NORTHEAST COLORADO...

CITY           SKY/WX    TMP DP  RH WIND       PRES   REMARKS
GREELEY ARPT   CLOUDY    45  28  53 CALM      30.17R
AKRON          CLOUDY    41  35  79 S6        30.16F
BURLINGTON     CLOUDY    40  31  70 E8        30.17F
WRAY           CLOUDY    41  30  65 E3        30.19R
STERLING       CLOUDY    39  34  81 CALM      30.15F
HOLYOKE        NOT AVBL
FORT MORGAN    CLOUDY    43  31  62 CALM      30.17F
$$

COZ086-089-092>099-270800-
...SOUTHEAST COLORADO...

CITY           SKY/WX    TMP DP  RH WIND       PRES   REMARKS
PUEBLO         CLEAR     39  31  72 NE7       30.18S
LA JUNTA       PTCLDY    40  25  55 E7        30.18S
LAMAR          PTCLDY    35  29  78 SW5       30.17F WCI  31
SPRINGFIELD      N/A     37  28  70 NW3       30.18F
$$



USA.gov is the U.S. government's official web portal to all federal, state and local government web resources and services.